• In Netherlands
  • List of Countries
  • For 7 days
  • Water Temperature
  • Satellite Maps
  • Weather Map
  • Weather Widgets
  • user-avatar
    Login

    Hourly Weather Krasnaya Gorka

    Today, 28 May, Monday

    Time Temperature Precipitation Wind Pressure Humidity
    00:00 +15°C° 0 mm 1 mps 757 mmHg 78%
    01:00 +15°C° 0 mm 1 mps 757 mmHg 81%
    02:00 +14°C° 0 mm 1 mps 757 mmHg 83%
    03:00 +14°C° 0 mm 1 mps 757 mmHg 84%
    04:00 +14°C° 0 mm 1 mps 758 mmHg 84%
    05:00 +14°C° 0 mm 2 mps 758 mmHg 85%
    06:00 +16°C° 0 mm 2 mps 758 mmHg 79%
    07:00 +18°C° 0 mm 2 mps 758 mmHg 73%
    08:00 +20°C° 0 mm 2 mps 758 mmHg 67%
    09:00 +21°C° 0 mm 2 mps 759 mmHg 62%
    10:00 +24°C° 0 mm 2 mps 759 mmHg 57%
    11:00 +25°C° 0 mm 3 mps 759 mmHg 53%
    12:00 +26°C° 0 mm 3 mps 759 mmHg 51%
    13:00 +26°C° 0 mm 3 mps 759 mmHg 48%
    14:00 +26°C° 0 mm 3 mps 759 mmHg 46%
    15:00 +26°C° 0 mm 2 mps 759 mmHg 47%
    16:00 +26°C° 0 mm 2 mps 759 mmHg 49%
    17:00 +26°C° 0 mm 2 mps 759 mmHg 50%
    18:00 +24°C° 0 mm 2 mps 759 mmHg 58%
    19:00 +21°C° 0 mm 2 mps 759 mmHg 66%
    20:00 +19°C° 0 mm 2 mps 759 mmHg 74%
    21:00 +18°C° 0 mm 2 mps 759 mmHg 76%
    22:00 +17°C° 0 mm 2 mps 759 mmHg 79%
    23:00 +15°C° 0 mm 2 mps 759 mmHg 81%

    Tomorrow, 29 May, Tuesday

    Time Temperature Precipitation Wind Pressure Humidity
    00:00 +15°C° 0 mm 2 mps 759 mmHg 79%
    01:00 +14°C° 0 mm 2 mps 759 mmHg 78%
    02:00 +13°C° 0 mm 2 mps 760 mmHg 77%
    03:00 +13°C° 0 mm 2 mps 759 mmHg 78%
    04:00 +13°C° 0 mm 2 mps 759 mmHg 79%
    05:00 +13°C° 0 mm 2 mps 759 mmHg 80%
    06:00 +15°C° 0 mm 2 mps 759 mmHg 77%
    07:00 +17°C° 0 mm 2 mps 759 mmHg 74%
    08:00 +20°C° 0 mm 2 mps 759 mmHg 71%
    09:00 +21°C° 0 mm 2 mps 759 mmHg 66%
    10:00 +24°C° 0 mm 2 mps 759 mmHg 61%
    11:00 +25°C° 0 mm 2 mps 758 mmHg 57%
    12:00 +26°C° 0 mm 1 mps 758 mmHg 54%
    13:00 +27°C° 0 mm 1 mps 757 mmHg 50%
    14:00 +28°C° 0 mm 1 mps 757 mmHg 47%
    15:00 +28°C° 0 mm 1 mps 756 mmHg 48%
    16:00 +27°C° 0 mm 1 mps 756 mmHg 49%
    17:00 +27°C° 0 mm 1 mps 755 mmHg 50%
    18:00 +25°C° 0 mm 1 mps 755 mmHg 58%
    19:00 +24°C° 0 mm 1 mps 755 mmHg 66%
    20:00 +22°C° 0 mm 1 mps 755 mmHg 74%
    21:00 +21°C° 0 mm 1 mps 754 mmHg 77%
    22:00 +20°C° 0 mm 1 mps 754 mmHg 81%
    23:00 +19°C° 0 mm 1 mps 754 mmHg 85%

    Day after tomorrow, 30 May, Wednesday

    Time Temperature Precipitation Wind Pressure Humidity
    00:00 +19°C° 0 mm 1 mps 754 mmHg 87%
    01:00 +18°C° 0 mm 1 mps 754 mmHg 89%
    02:00 +17°C° 0 mm 2 mps 753 mmHg 91%
    03:00 +17°C° 0 mm 2 mps 753 mmHg 92%
    04:00 +17°C° 0 mm 2 mps 753 mmHg 92%
    05:00 +17°C° 0 mm 2 mps 753 mmHg 92%
    06:00 +19°C° 0 mm 2 mps 752 mmHg 85%
    07:00 +21°C° 0 mm 2 mps 752 mmHg 77%
    08:00 +24°C° 0 mm 2 mps 752 mmHg 70%
    09:00 +25°C° 0 mm 3 mps 751 mmHg 64%
    10:00 +26°C° 0 mm 3 mps 751 mmHg 57%
    11:00 +28°C° 0 mm 4 mps 751 mmHg 51%
    12:00 +28°C° 0 mm 4 mps 750 mmHg 50%
    13:00 +28°C° 0 mm 4 mps 750 mmHg 49%
    14:00 +28°C° 0 mm 4 mps 749 mmHg 49%
    15:00 +28°C° 0 mm 4 mps 749 mmHg 51%
    16:00 +28°C° 0 mm 4 mps 749 mmHg 53%
    17:00 +27°C° 0 mm 3 mps 748 mmHg 55%
    18:00 +26°C° 0 mm 3 mps 748 mmHg 61%
    19:00 +24°C° 0 mm 3 mps 748 mmHg 67%
    20:00 +23°C° 0 mm 2 mps 747 mmHg 72%
    21:00 +21°C° 0 mm 3 mps 747 mmHg 74%
    22:00 +19°C° 0 mm 3 mps 747 mmHg 76%
    23:00 +18°C° 0 mm 3 mps 747 mmHg 78%

    31 May, Thursday

    Time Temperature Precipitation Wind Pressure Humidity
    00:00 +17°C° 0 mm 3 mps 747 mmHg 77%
    01:00 +16°C° 0 mm 3 mps 747 mmHg 77%
    02:00 +14°C° 0 mm 3 mps 747 mmHg 76%
    03:00 +13°C° 0 mm 3 mps 748 mmHg 73%
    04:00 +12°C° 0 mm 4 mps 748 mmHg 70%
    05:00 +11°C° 0 mm 4 mps 748 mmHg 66%
    06:00 +13°C° 0 mm 4 mps 749 mmHg 62%
    07:00 +14°C° 0 mm 5 mps 749 mmHg 57%
    08:00 +15°C° 0 mm 5 mps 749 mmHg 52%
    09:00 +16°C° 0 mm 5 mps 749 mmHg 50%
    10:00 +17°C° 0 mm 5 mps 750 mmHg 48%
    11:00 +19°C° 0 mm 5 mps 750 mmHg 46%
    12:00 +19°C° 0 mm 5 mps 750 mmHg 46%
    13:00 +19°C° 0 mm 5 mps 750 mmHg 46%
    14:00 +20°C° 0 mm 5 mps 750 mmHg 45%
    15:00 +19°C° 0 mm 5 mps 750 mmHg 48%
    16:00 +17°C° 0 mm 5 mps 750 mmHg 50%
    17:00 +18°C° 0 mm 4 mps 750 mmHg 52%
    18:00 +15°C° 0 mm 4 mps 751 mmHg 53%
    19:00 +14°C° 0 mm 4 mps 751 mmHg 53%
    20:00 +12°C° 0 mm 4 mps 751 mmHg 54%
    21:00 +11°C° 0 mm 4 mps 752 mmHg 53%
    22:00 +10°C° 0 mm 4 mps 752 mmHg 52%
    23:00 +8°C° 0 mm 4 mps 753 mmHg 51%

    1 June, Friday

    Time Temperature Precipitation Wind Pressure Humidity
    00:00 +7°C° 0 mm 4 mps 753 mmHg 54%
    01:00 +6°C° 0 mm 4 mps 753 mmHg 57%
    02:00 +6°C° 0 mm 4 mps 754 mmHg 60%
    03:00 +5°C° 0 mm 4 mps 754 mmHg 62%
    04:00 +5°C° 0 mm 4 mps 754 mmHg 65%
    05:00 +5°C° 0 mm 3 mps 754 mmHg 67%
    06:00 +7°C° 0 mm 4 mps 755 mmHg 63%
    07:00 +8°C° 0 mm 4 mps 755 mmHg 59%
    08:00 +11°C° 0 mm 4 mps 755 mmHg 55%
    09:00 +12°C° 0 mm 4 mps 756 mmHg 50%
    10:00 +13°C° 0 mm 4 mps 756 mmHg 45%
    11:00 +15°C° 0 mm 4 mps 756 mmHg 41%
    12:00 +15°C° 0 mm 4 mps 756 mmHg 40%
    13:00 +17°C° 0 mm 4 mps 756 mmHg 39%
    14:00 +17°C° 0 mm 4 mps 756 mmHg 39%
    15:00 +17°C° 0 mm 4 mps 756 mmHg 40%
    16:00 +17°C° 0 mm 4 mps 755 mmHg 41%
    17:00 +17°C° 0 mm 4 mps 755 mmHg 42%
    18:00 +14°C° 0 mm 3 mps 756 mmHg 49%
    19:00 +12°C° 0 mm 3 mps 756 mmHg 56%
    20:00 +12°C° 0 mm 2 mps 756 mmHg 63%
    21:00 +10°C° 0 mm 2 mps 756 mmHg 65%
    22:00 +9°C° 0 mm 2 mps 757 mmHg 67%
    23:00 +7°C° 0 mm 2 mps 757 mmHg 68%

    2 June, Saturday

    Time Temperature Precipitation Wind Pressure Humidity
    00:00 +7°C° 0 mm 2 mps 757 mmHg 70%
    01:00 +6°C° 0 mm 2 mps 757 mmHg 72%
    02:00 +5°C° 0 mm 2 mps 757 mmHg 74%
    03:00 +7°C° 0 mm 1 mps 758 mmHg 74%
    04:00 +7°C° 0 mm 1 mps 758 mmHg 74%
    05:00 +7°C° 0 mm 1 mps 758 mmHg 74%
    06:00 +10°C° 0 mm 1 mps 758 mmHg 67%
    07:00 +12°C° 0 mm 1 mps 758 mmHg 59%
    08:00 +14°C° 0 mm 1 mps 758 mmHg 52%
    09:00 +15°C° 0 mm 1 mps 758 mmHg 47%
    10:00 +17°C° 0 mm 2 mps 758 mmHg 43%
    11:00 +18°C° 0 mm 2 mps 758 mmHg 39%
    12:00 +19°C° 0 mm 2 mps 757 mmHg 38%
    13:00 +19°C° 0 mm 2 mps 757 mmHg 37%
    14:00 +21°C° 0 mm 1 mps 757 mmHg 36%
    15:00 +21°C° 0 mm 1 mps 756 mmHg 37%
    16:00 +21°C° 0 mm 1 mps 756 mmHg 38%
    17:00 +21°C° 0 mm 1 mps 756 mmHg 39%
    18:00 +19°C° 0 mm 1 mps 756 mmHg 47%
    19:00 +16°C° 0 mm 1 mps 755 mmHg 54%
    20:00 +14°C° 0 mm 1 mps 755 mmHg 61%
    21:00 +13°C° 0 mm 1 mps 755 mmHg 63%
    22:00 +12°C° 0 mm 1 mps 755 mmHg 66%
    23:00 +11°C° 0 mm 1 mps 755 mmHg 68%
    Show more